QPF
0.00 0.00 0.00 0.00 0.00 0.00 0.00 0.00 0.00 0.00 0.00 0.00 0.00 0.00 0.00 0.00 0.00 0.00 0.00 0.00 0.00 0.00 0.00 0.00 0.00 0.00 0.00 0.00 0.00 0.00 0.00 0.00 0.00 0.00 0.00 0.00 0.00 0.00 0.00 0.00 0.00 0.00 0.00 0.00 0.00
0.00 0.00 0.00 0.00 0.00 0.00 0.00 0.00 0.00 0.00 0.00 0.00 0.00 0.00 0.00 0.00 0.00 0.00 0.00 0.00 0.00 0.00 0.00 0.00 0.00 0.00 0.00 0.00 0.00 0.00 0.00 0.00 0.00 0.00 0.00 0.00 0.00 0.00 0.00 0.00 0.00 0.00 0.00 0.00 0.00
0.00 0.00 0.00 0.00 0.00 0.00 0.00 0.00 0.00 0.00 0.00 0.00 0.00 0.00 0.00 0.00 0.00 0.00 0.00 0.00 0.00 0.00 0.00 0.00 0.00 0.00 0.00 0.00 0.00 0.00 0.00 0.00 0.00 0.00 0.00 0.00 0.00 0.00 0.00 0.00 0.00 0.00 0.00 0.00 0.00
0.00 0.00 0.00 0.00 0.00 0.00 0.00 0.00 0.00 0.00 0.00 0.00 0.00 0.00 0.00 0.00 0.00 0.00 0.00 0.00 0.00 0.00 0.00 0.00 0.00 0.00 0.00 0.00 0.00 0.00 0.00 0.00 0.00 0.00 0.00 0.00 0.00 0.00 0.00 0.00 0.00 0.00 0.00 0.00 0.00
0.00 0.00 0.00 0.00 0.00 0.00 0.00 0.00 0.00 0.00 0.00 0.00 0.00 0.00 0.00 0.00 0.00 0.00 0.00 0.00 0.00 0.00 0.00 0.00 0.00 0.00 0.00 0.00 0.00 0.00 0.00 0.00 0.00 0.00 0.00 0.00 0.00 0.00 0.00 0.00 0.00 0.00 0.00 0.00 0.00
0.00 0.00 0.00 0.00 0.00 0.00 0.00 0.00 0.00 0.00 0.00 0.00 0.00 0.00 0.00 0.00 0.00 0.00 0.00 0.00 0.00 0.00 0.00 0.00 0.00 0.00 0.00 0.00 0.00 0.00 0.00 0.00 0.00 0.00 0.00 0.00 0.00 0.00 0.00 0.00 0.00 0.00 0.00 0.00 0.00
0.00 0.00 0.00 0.00 0.00 0.00 0.00 0.00 0.00 0.00 0.00 0.00 0.00 0.00 0.00 0.00 0.00 0.00 0.00 0.00 0.00 0.00 0.00 0.00 0.00 0.00 0.00 0.00 0.00 0.00 0.00 0.00 0.00 0.00 0.00 0.00 0.00 0.00 0.00 0.00 0.00 0.00 0.00 0.00 0.00
0.00 0.00 0.00 0.00 0.00 0.00 0.00 0.00 0.00 0.00 0.00 0.00 0.00 0.00 0.00 0.00 0.00 0.00 0.00 0.00 0.00 0.00 0.00 0.00 0.00 0.00 0.00 0.00 0.00 0.00 0.00 0.00 0.00 0.00 0.00 0.00 0.00 0.00 0.00 0.00 0.00 0.00 0.00 0.00 0.00
0.00 0.00 0.00 0.00 0.00 0.00 0.00 0.00 0.00 0.00 0.00 0.00 0.00 0.00 0.00 0.00 0.00 0.00 0.00 0.00 0.00 0.00 0.00 0.00 0.00 0.00 0.00 0.00 0.00 0.00 0.00 0.00 0.00 0.00 0.00 0.00 0.00 0.00 0.00 0.00 0.00 0.00 0.00 0.00 0.00
0.00 0.00 0.00 0.00 0.00 0.00 0.00 0.00 0.00 0.00 0.00 0.00 0.00 0.00 0.00 0.00 0.00 0.00 0.00 0.00 0.00 0.00 0.00 0.00 0.00 0.00 0.00 0.00 0.00 0.00 0.00 0.00 0.00 0.00 0.00 0.00 0.00 0.00 0.00 0.00 0.00 0.00 0.00 0.00 0.00
0.00 0.00 0.00 0.00 0.00 0.00 0.00 0.00 0.00 0.00 0.00 0.00 0.00 0.00 0.00 0.00 0.00 0.00 0.00 0.00 0.00 0.00 0.00 0.00 0.00 0.00 0.00 0.00 0.00 0.00 0.00 0.00 0.00 0.00 0.00 0.00 0.00 0.00 0.00 0.00 0.00 0.00 0.00 0.00 0.00
0.00 0.00 0.00 0.00 0.00 0.00 0.00 0.00 0.00 0.00 0.00 0.00 0.00 0.00 0.00 0.00 0.00 0.00 0.00 0.00 0.00 0.00 0.00 0.00 0.00 0.00 0.00 0.00 0.00 0.00 0.00 0.00 0.00 0.00 0.00 0.00 0.00 0.00 0.00 0.00 0.00 0.00 0.00 0.00 0.00
0.00 0.00 0.00 0.00 0.00 0.00 0.00 0.00 0.00 0.00 0.00 0.00 0.00 0.00 0.00 0.00 0.00 0.00 0.00 0.00 0.00 0.00 0.00 0.00 0.00 0.00 0.00 0.00 0.00 0.00 0.00 0.00 0.00 0.00 0.00 0.00 0.00 0.00 0.00 0.00 0.00 0.00 0.00 0.00 0.00
0.00 0.00 0.00 0.00 0.00 0.00 0.00 0.00 0.00 0.00 0.00 0.00 0.00 0.00 0.00 0.00 0.00 0.00 0.00 0.00 0.00 0.00 0.00 0.00 0.00 0.00 0.00 0.00 0.00 0.00 0.00 0.00 0.00 0.00 0.00 0.00 0.00 0.00 0.00 0.00 0.00 0.00 0.00 0.00 0.00
0.00 0.00 0.00 0.00 0.00 0.00 0.00 0.00 0.00 0.01 0.00 0.00 0.00 0.00 0.00 0.00 0.00 0.00 0.00 0.00 0.00 0.00 0.00 0.00 0.00 0.00 0.00 0.00 0.00 0.00 0.00 0.00 0.00 0.00 0.00 0.00 0.00 0.00 0.00 0.00 0.00 0.00 0.00 0.00 0.00
0.00 0.00 0.00 0.00 0.00 0.00 0.00 0.00 0.02 0.03 0.00 0.00 0.00 0.00 0.00 0.00 0.00 0.00 0.00 0.00 0.00 0.00 0.00 0.00 0.00 0.00 0.00 0.00 0.00 0.00 0.00 0.00 0.00 0.00 0.00 0.00 0.00 0.00 0.00 0.00 0.00 0.00 0.00 0.00 0.00
0.00 0.00 0.00 0.00 0.00 0.00 0.00 0.01 0.05 0.03 0.00 0.00 0.00 0.00 0.00 0.00 0.00 0.00 0.00 0.00 0.00 0.00 0.00 0.00 0.00 0.00 0.00 0.00 0.00 0.00 0.00 0.00 0.00 0.00 0.00 0.00 0.00 0.00 0.00 0.00 0.00 0.00 0.00 0.00 0.00
0.00 0.00 0.00 0.00 0.00 0.00 0.00 0.03 0.05 0.01 0.00 0.00 0.00 0.00 0.00 0.00 0.00 0.00 0.00 0.00 0.00 0.00 0.00 0.00 0.00 0.00 0.00 0.00 0.00 0.00 0.00 0.00 0.00 0.00 0.00 0.00 0.00 0.00 0.00 0.00 0.00 0.00 0.00 0.00 0.00
0.00 0.00 0.00 0.00 0.00 0.00 0.03 0.09 0.05 0.01 0.00 0.00 0.00 0.00 0.00 0.00 0.00 0.00 0.00 0.00 0.00 0.02 0.02 0.00 0.00 0.00 0.00 0.00 0.00 0.00 0.00 0.00 0.00 0.00 0.00 0.00 0.00 0.00 0.00 0.00 0.00 0.00 0.00 0.00 0.00
0.00 0.00 0.00 0.00 0.00 0.03 0.03 0.06 0.02 0.00 0.00 0.02 0.05 0.01 0.00 0.00 0.00 0.00 0.00 0.00 0.00 0.00 0.02 0.01 0.02 0.00 0.00 0.00 0.00 0.00 0.00 0.00 0.00 0.00 0.00 0.00 0.00 0.00 0.00 0.00 0.00 0.00 0.00 0.00 0.00
0.00 0.00 0.00 0.00 0.00 0.01 0.04 0.05 0.00 0.00 0.00 0.03 0.05 0.03 0.00 0.00 0.00 0.00 0.00 0.01 0.00 0.00 0.00 0.01 0.03 0.00 0.00 0.00 0.00 0.00 0.00 0.00 0.00 0.00 0.00 0.00 0.00 0.00 0.00 0.00 0.00 0.00 0.00 0.00 0.00
0.00 0.00 0.00 0.00 0.04 0.03 0.02 0.01 0.00 0.01 0.00 0.01 0.02 0.04 0.06 0.03 0.01 0.01 0.02 0.02 0.00 0.00 0.00 0.01 0.01 0.01 0.00 0.00 0.00 0.00 0.00 0.00 0.00 0.00 0.00 0.00 0.00 0.00 0.00 0.00 0.00 0.00 0.00 0.00 0.00
0.00 0.00 0.00 0.00 0.02 0.01 0.00 0.00 0.00 0.00 0.01 0.02 0.04 0.03 0.02 0.03 0.05 0.03 0.01 0.00 0.00 0.01 0.02 0.02 0.02 0.01 0.03 0.00 0.00 0.00 0.00 0.00 0.00 0.00 0.00 0.00 0.00 0.00 0.00 0.00 0.00 0.00 0.00 0.00 0.00
0.00 0.00 0.00 0.00 0.00 0.00 0.00 0.00 0.00 0.00 0.00 0.00 0.01 0.04 0.06 0.04 0.01 0.02 0.03 0.02 0.00 0.01 0.01 0.01 0.01 0.01 0.03 0.00 0.00 0.00 0.00 0.00 0.00 0.00 0.00 0.00 0.00 0.00 0.00 0.00 0.00 0.00 0.00 0.00 0.00
0.00 0.00 0.00 0.00 0.00 0.00 0.00 0.01 0.02 0.02 0.00 0.00 0.03 0.06 0.04 0.03 0.02 0.03 0.04 0.00 0.01 0.02 0.03 0.04 0.00 0.00 0.00 0.00 0.00 0.00 0.00 0.00 0.00 0.00 0.00 0.00 0.00 0.00 0.00 0.00 0.00 0.00 0.00 0.00 0.00
0.00 0.00 0.00 0.00 0.00 0.00 0.00 0.02 0.02 0.01 0.00 0.00 0.03 0.02 0.02 0.04 0.05 0.03 0.03 0.02 0.03 0.00 0.02 0.04 0.01 0.00 0.00 0.00 0.00 0.00 0.00 0.00 0.00 0.00 0.00 0.00 0.00 0.00 0.00 0.00 0.00 0.00 0.00 0.00 0.00
0.00 0.00 0.02 0.00 0.00 0.00 0.01 0.00 0.00 0.00 0.00 0.02 0.02 0.01 0.03 0.06 0.03 0.01 0.01 0.00 0.00 0.00 0.00 0.03 0.03 0.01 0.00 0.00 0.00 0.00 0.00 0.00 0.00 0.00 0.00 0.00 0.00 0.00 0.00 0.00 0.00 0.00 0.00 0.00 0.00
MSLP
1021.18 1020.85 1020.53 1020.21 1019.95 1019.65 1019.44 1019.07 1018.78 1018.44 1018.13 1017.77 1017.13 1016.51 1016.11 1015.72 1015.01 1013.46 1011.78 1009.89 1009.83 1010.16 1010.74 1010.19 1009.53 1008.73 1008.31 1007.56 1006.94 1006.09 1004.84 1002.75 1001.62 1000.77 999.85 999.61 999.62 999.75 1000.54 1001.20 1001.06 1001.08 1000.80 1000.77 1001.00
1021.32 1020.98 1020.68 1020.38 1019.94 1019.59 1019.37 1019.07 1018.70 1018.20 1017.81 1017.45 1017.22 1016.71 1016.44 1015.59 1014.08 1011.33 1009.46 1009.66 1009.93 1010.32 1010.07 1008.93 1008.68 1008.01 1007.48 1007.02 1006.61 1005.74 1003.89 1002.43 1001.60 1000.73 1000.18 999.70 999.45 999.77 1000.08 1000.40 1000.84 1000.94 1000.49 1000.16 1000.79
1021.30 1020.92 1020.61 1020.24 1019.94 1019.78 1019.45 1018.92 1018.55 1018.20 1017.80 1017.58 1017.12 1016.48 1015.80 1014.87 1011.97 1008.45 1009.50 1009.27 1009.77 1010.08 1009.65 1008.65 1007.97 1006.89 1006.45 1005.65 1005.04 1004.30 1002.84 1002.29 1001.12 1000.56 1000.36 1000.08 999.62 999.73 999.97 1000.06 1000.03 1000.17 1000.32 1000.24 1000.64
1021.29 1020.85 1020.49 1020.16 1019.81 1019.39 1019.03 1018.74 1018.33 1018.00 1017.72 1017.36 1016.85 1016.36 1015.81 1014.76 1010.40 1008.66 1009.87 1009.85 1010.05 1009.88 1009.57 1008.80 1008.03 1006.46 1005.17 1004.24 1003.86 1003.27 1002.55 1002.32 1001.58 1000.93 1000.43 999.87 999.85 999.61 1000.02 999.99 1000.11 1000.32 1000.42 1000.38 1000.53
1021.31 1020.87 1020.45 1020.01 1019.55 1019.17 1018.82 1018.39 1018.07 1017.73 1017.38 1017.13 1016.90 1016.51 1015.57 1012.74 1009.24 1008.55 1009.45 1009.29 1008.97 1008.57 1008.21 1007.44 1006.88 1005.77 1003.85 1003.53 1002.99 1001.76 1001.78 1001.66 1001.29 1001.04 1000.51 1000.29 999.77 999.57 999.63 1000.11 1000.06 1000.19 1000.34 1000.15 1000.11
1021.47 1021.05 1020.64 1020.16 1019.65 1019.13 1018.64 1018.25 1017.94 1017.58 1017.26 1016.94 1016.73 1016.66 1015.27 1011.42 1008.60 1008.37 1008.41 1008.44 1008.07 1007.42 1006.58 1006.49 1005.35 1004.78 1003.33 1002.75 1001.80 1001.50 1001.12 1000.80 1000.77 1000.46 1000.30 1000.12 999.54 999.63 999.75 999.95 999.48 999.53 999.58 999.49 999.35
1021.58 1021.18 1020.71 1020.15 1019.57 1019.01 1018.39 1017.77 1017.23 1016.83 1016.63 1016.42 1016.18 1015.65 1013.56 1010.26 1008.95 1008.70 1008.70 1008.17 1007.78 1007.56 1006.79 1005.58 1005.10 1004.06 1003.29 1001.96 1001.77 1001.38 1000.53 1000.22 999.78 1000.01 999.60 999.96 998.69 998.70 999.27 999.23 998.69 998.73 998.74 998.61 998.86
1021.44 1021.00 1020.53 1019.98 1019.39 1018.74 1018.03 1017.31 1016.68 1016.17 1015.76 1015.53 1015.48 1014.85 1011.98 1009.58 1008.87 1008.38 1008.17 1007.63 1007.76 1007.73 1007.31 1006.52 1005.04 1004.02 1003.08 1002.59 1001.66 1001.22 1000.56 999.17 999.20 999.55 999.47 1000.03 996.99 998.49 998.71 998.28 997.78 997.71 997.76 997.83 998.53
1021.30 1020.84 1020.36 1019.84 1019.24 1018.57 1017.79 1016.71 1015.61 1015.21 1015.15 1014.96 1014.66 1013.48 1009.98 1008.40 1008.57 1008.04 1008.02 1007.35 1007.01 1006.82 1006.87 1006.95 1006.00 1004.07 1003.49 1002.47 1001.67 1000.27 998.70 998.13 998.82 998.80 998.64 998.50 996.45 997.90 998.14 997.65 997.50 997.09 997.20 997.77 997.69
1021.10 1020.62 1020.10 1019.49 1018.81 1018.05 1017.22 1015.76 1014.38 1014.68 1014.23 1013.31 1012.51 1011.86 1008.89 1007.43 1006.70 1007.18 1006.95 1007.03 1006.82 1006.47 1005.99 1006.05 1005.45 1004.18 1003.14 1001.51 998.63 998.29 998.27 998.70 997.99 998.09 997.67 997.17 996.03 996.35 997.08 997.25 997.18 996.47 996.70 997.25 996.93
1021.11 1020.58 1019.99 1019.34 1018.58 1017.76 1016.65 1013.28 1012.96 1012.61 1011.79 1010.58 1009.49 1009.03 1007.26 1006.78 1006.70 1006.56 1006.66 1006.78 1006.53 1006.00 1004.45 1004.52 1004.54 1001.72 998.79 999.15 998.64 998.68 998.37 997.34 997.08 996.96 997.26 996.43 995.69 995.51 996.62 996.81 996.23 995.92 995.85 996.29 996.38
1020.87 1020.29 1019.65 1019.04 1018.28 1017.39 1016.44 1013.81 1013.41 1014.12 1012.22 1010.31 1008.88 1007.74 1007.32 1007.20 1006.52 1006.42 1006.77 1006.25 1005.75 1004.75 1004.60 1003.55 1001.33 997.62 1000.21 999.52 999.20 998.87 998.09 996.85 996.89 996.55 996.25 995.72 995.22 995.33 995.34 995.69 995.74 995.29 994.89 995.06 995.69
1020.60 1019.99 1019.31 1018.64 1017.62 1016.60 1014.72 1013.82 1013.78 1013.36 1012.11 1008.97 1006.67 1005.74 1005.40 1005.84 1005.32 1005.37 1005.74 1005.54 1004.91 1003.67 1002.80 1001.54 997.74 1000.81 999.37 998.56 998.50 997.52 997.10 997.03 996.71 996.82 996.11 995.74 994.85 994.55 994.70 994.72 995.00 995.12 994.85 994.77 994.66
1020.31 1019.66 1019.03 1018.34 1017.06 1015.08 1013.68 1014.15 1013.71 1013.41 1011.26 1005.65 1005.04 1004.65 1005.07 1005.09 1004.50 1004.31 1004.16 1004.56 1003.93 1002.90 1002.10 1000.88 999.75 998.71 998.42 997.52 997.21 995.94 996.71 997.22 997.12 996.95 995.80 996.13 994.01 993.21 993.98 993.87 993.92 993.74 993.44 993.62 994.03
1020.11 1019.36 1018.68 1018.40 1017.05 1015.13 1014.48 1014.01 1013.83 1013.60 1009.70 1004.82 1004.69 1004.72 1004.12 1004.39 1003.68 1003.42 1003.41 1003.82 1003.07 1002.44 1002.44 998.91 999.08 997.92 997.06 995.20 996.88 994.33 996.81 996.57 996.90 996.94 996.59 995.38 995.02 992.00 993.75 992.94 992.76 992.78 992.81 993.06 993.20
1019.93 1019.14 1018.36 1016.31 1016.62 1016.12 1015.31 1014.43 1014.12 1012.99 1007.78 1004.88 1004.72 1004.96 1003.99 1004.00 1003.57 1003.31 1003.55 1003.40 1003.09 1002.64 1001.33 999.43 998.77 997.77 996.07 996.16 995.91 996.13 996.40 996.46 996.36 996.32 995.15 994.33 994.85 991.62 992.48 991.95 991.95 992.08 991.99 991.95 992.15
1019.57 1019.00 1018.29 1016.94 1016.21 1015.79 1015.57 1014.99 1013.74 1010.58 1007.75 1006.72 1006.23 1006.08 1005.56 1003.96 1003.84 1003.37 1003.27 1002.73 1002.70 1002.23 1001.40 999.99 998.45 997.13 996.41 995.92 995.43 995.24 995.50 995.26 995.31 994.29 991.58 993.98 993.55 991.13 991.53 991.50 991.34 991.51 991.39 991.14 991.32
1019.05 1018.57 1017.12 1016.42 1016.41 1015.93 1015.93 1014.61 1012.10 1009.18 1008.51 1008.04 1006.76 1005.98 1005.28 1004.10 1003.98 1003.90 1003.63 1003.05 1002.51 1002.83 1002.28 999.43 998.29 996.39 994.74 994.06 993.47 993.59 993.77 992.86 991.89 991.98 992.11 992.55 991.36 990.34 990.41 990.36 990.63 990.89 990.47 990.87 992.11
1018.19 1016.37 1015.98 1015.78 1015.81 1015.93 1015.96 1013.30 1010.83 1010.08 1009.38 1008.52 1007.77 1006.47 1005.06 1004.02 1004.19 1003.41 1003.24 1003.41 1004.26 1005.10 1004.42 999.88 997.26 995.62 994.92 994.01 993.37 992.47 992.25 991.74 992.63 991.58 990.87 989.81 988.94 989.38 989.89 989.65 989.95 989.93 990.35 991.06 992.31
1017.83 1015.52 1015.02 1015.75 1016.09 1015.67 1015.17 1013.08 1011.47 1010.57 1010.10 1009.33 1008.32 1006.85 1005.52 1004.70 1005.87 1004.77 1003.63 1005.19 1005.50 1005.82 1006.54 1001.53 998.41 995.57 993.96 994.43 993.05 991.81 991.73 992.96 992.36 991.03 989.47 989.03 988.59 987.87 988.67 988.53 988.89 989.41 989.67 990.71 992.44
1017.59 1014.61 1014.80 1015.48 1015.78 1014.91 1013.93 1012.29 1011.02 1010.57 1010.17 1009.39 1008.58 1007.81 1006.63 1005.44 1004.65 1004.27 1004.08 1005.53 1006.29 1005.64 1004.85 1002.89 1000.60 996.22 994.31 992.03 991.73 991.05 990.45 991.18 991.58 990.61 989.60 989.04 988.18 987.54 988.02 988.39 987.99 988.31 989.19 990.40 992.25
1016.09 1014.19 1014.49 1014.94 1015.14 1014.45 1012.96 1011.86 1011.24 1010.11 1009.28 1008.96 1008.72 1008.08 1007.30 1006.70 1005.72 1004.78 1004.83 1005.40 1006.47 1005.94 1004.72 1002.59 1001.57 997.67 994.15 992.04 991.87 991.06 990.21 990.61 989.74 989.82 989.60 988.88 988.27 988.41 988.47 988.32 987.74 988.00 988.93 990.16 992.23
1015.88 1014.31 1014.30 1014.51 1014.46 1014.15 1012.78 1011.77 1010.20 1009.41 1008.97 1008.71 1008.44 1008.15 1007.49 1007.05 1006.24 1005.64 1005.43 1006.06 1006.65 1007.06 1006.10 1004.44 1001.65 998.39 995.70 994.02 991.60 990.10 989.87 989.74 990.48 989.61 989.12 988.72 987.72 988.05 988.40 988.22 987.80 988.06 988.98 990.85 992.25
1016.40 1015.42 1014.26 1014.22 1015.05 1015.15 1013.68 1011.78 1010.34 1009.36 1009.12 1008.84 1008.25 1007.96 1007.81 1006.70 1005.80 1005.69 1005.00 1006.56 1006.95 1007.05 1007.02 1006.43 1003.20 999.76 997.05 994.46 991.93 990.45 989.22 988.94 989.54 989.16 988.45 988.40 988.16 988.14 988.15 988.19 988.53 989.39 990.27 991.21 992.12
1017.17 1015.84 1015.87 1015.28 1015.15 1015.12 1014.47 1012.71 1011.23 1010.22 1009.88 1009.31 1008.29 1008.05 1007.62 1006.89 1006.14 1005.65 1006.07 1005.91 1006.05 1006.74 1006.76 1006.26 1002.66 1000.01 998.92 997.23 993.59 990.36 989.12 988.72 988.45 989.05 987.99 988.00 988.00 987.84 987.85 988.26 988.90 990.00 990.63 991.37 992.16
1017.73 1017.23 1016.65 1016.27 1015.55 1014.96 1013.96 1012.47 1011.73 1011.24 1011.17 1009.99 1009.24 1008.68 1008.24 1007.65 1006.99 1006.44 1005.86 1005.60 1005.52 1006.30 1005.97 1005.45 1002.14 1000.34 999.37 998.88 995.53 990.57 989.42 988.68 988.58 989.08 988.05 987.88 988.37 987.92 988.39 988.79 989.38 989.97 990.69 991.41 992.06
1018.49 1018.80 1018.39 1016.74 1015.53 1015.44 1014.02 1013.26 1012.50 1012.07 1011.04 1010.20 1009.86 1009.20 1008.36 1007.99 1007.53 1006.75 1005.99 1005.28 1004.61 1004.54 1004.51 1004.10 1002.40 1000.20 1000.14 998.92 995.73 991.72 989.54 988.48 988.57 988.86 988.89 988.96 989.36 989.07 989.31 989.36 989.70 989.90 990.53 991.16 991.90
Thickness
5618 5620 5623 5626 5630 5634 5636 5641 5644 5649 5655 5660 5667 5675 5682 5688 5697 5712 5722 5742 5743 5745 5741 5747 5753 5758 5762 5761 5771 5779 5749 5754 5775 5785 5801 5827 5810 5831 5821 5802 5811 5815 5815 5821 5827
5612 5613 5615 5617 5621 5625 5628 5631 5635 5640 5645 5650 5655 5663 5669 5679 5694 5714 5741 5739 5736 5736 5737 5741 5739 5748 5744 5750 5755 5749 5748 5762 5794 5802 5798 5816 5817 5815 5806 5797 5798 5804 5823 5829 5816
5607 5609 5610 5612 5615 5615 5618 5624 5628 5632 5636 5639 5646 5654 5663 5673 5699 5730 5729 5734 5730 5728 5734 5740 5743 5747 5739 5755 5756 5758 5749 5775 5792 5805 5807 5801 5808 5817 5797 5787 5804 5799 5808 5813 5810
5601 5603 5605 5607 5609 5612 5614 5617 5621 5625 5627 5632 5638 5644 5651 5662 5683 5715 5711 5715 5718 5720 5722 5723 5726 5728 5736 5742 5762 5744 5763 5769 5781 5793 5793 5793 5803 5796 5794 5794 5809 5807 5809 5805 5802
5593 5596 5598 5601 5603 5606 5608 5610 5612 5616 5620 5624 5627 5632 5644 5664 5688 5705 5702 5711 5717 5719 5715 5718 5717 5726 5730 5745 5756 5754 5762 5769 5778 5781 5784 5789 5783 5786 5786 5799 5806 5802 5800 5798 5798
5583 5585 5586 5589 5592 5595 5598 5601 5603 5605 5608 5613 5616 5619 5633 5654 5693 5695 5697 5704 5709 5712 5717 5717 5723 5734 5738 5740 5745 5763 5763 5764 5770 5771 5776 5769 5777 5781 5783 5796 5798 5797 5796 5799 5801
5572 5573 5575 5577 5580 5583 5587 5592 5596 5599 5602 5604 5607 5613 5631 5661 5678 5680 5683 5690 5698 5701 5703 5721 5726 5724 5735 5733 5754 5753 5742 5753 5760 5766 5765 5774 5758 5764 5786 5793 5790 5793 5795 5797 5799
5562 5563 5564 5565 5568 5571 5575 5580 5585 5589 5594 5597 5599 5604 5624 5657 5663 5670 5674 5680 5684 5691 5695 5705 5718 5717 5720 5736 5735 5727 5736 5726 5758 5761 5763 5754 5743 5771 5788 5787 5786 5792 5795 5794 5792
5550 5551 5551 5553 5555 5557 5561 5569 5577 5580 5581 5584 5589 5598 5623 5651 5645 5657 5660 5665 5672 5681 5685 5688 5693 5703 5707 5703 5702 5722 5715 5733 5738 5762 5761 5756 5751 5766 5782 5782 5778 5787 5785 5784 5788
5540 5538 5538 5539 5541 5544 5549 5559 5568 5565 5572 5578 5586 5590 5616 5630 5646 5646 5652 5654 5655 5662 5669 5669 5673 5675 5686 5696 5699 5719 5719 5722 5727 5753 5758 5752 5755 5775 5776 5771 5770 5782 5779 5778 5786
5527 5525 5524 5524 5525 5527 5533 5558 5563 5566 5572 5579 5589 5591 5609 5620 5628 5630 5636 5636 5641 5645 5654 5662 5644 5670 5717 5721 5733 5732 5723 5728 5743 5761 5744 5747 5755 5771 5763 5762 5768 5775 5777 5779 5782
5511 5507 5505 5503 5504 5507 5510 5527 5528 5521 5538 5556 5571 5582 5591 5591 5595 5608 5616 5615 5622 5628 5638 5639 5653 5728 5711 5718 5713 5710 5711 5724 5742 5756 5754 5752 5746 5761 5768 5762 5766 5773 5781 5783 5779
5494 5489 5485 5482 5485 5488 5499 5500 5498 5500 5512 5544 5561 5573 5579 5579 5585 5592 5599 5602 5609 5621 5630 5631 5702 5686 5697 5704 5696 5712 5711 5719 5725 5741 5747 5742 5734 5748 5761 5767 5766 5769 5776 5777 5781
5475 5470 5467 5466 5473 5483 5487 5479 5479 5479 5492 5544 5544 5557 5558 5561 5565 5585 5595 5592 5599 5608 5618 5626 5676 5681 5681 5688 5706 5705 5727 5723 5719 5712 5700 5738 5710 5748 5751 5752 5760 5771 5774 5777 5781
5465 5462 5459 5455 5461 5468 5465 5464 5464 5465 5496 5537 5531 5541 5545 5548 5554 5563 5580 5574 5582 5593 5593 5642 5648 5663 5665 5705 5705 5724 5723 5719 5715 5701 5706 5719 5703 5745 5747 5745 5759 5762 5772 5776 5781
5462 5460 5456 5462 5453 5447 5448 5451 5450 5458 5496 5531 5529 5520 5534 5535 5539 5552 5553 5563 5570 5572 5591 5627 5648 5653 5678 5697 5702 5717 5707 5710 5711 5706 5686 5719 5702 5728 5740 5752 5755 5765 5772 5779 5785
5462 5456 5450 5444 5440 5438 5438 5440 5443 5475 5507 5505 5501 5505 5508 5528 5530 5535 5538 5545 5548 5550 5562 5600 5611 5644 5668 5663 5693 5700 5693 5674 5673 5688 5705 5724 5707 5734 5755 5758 5760 5760 5769 5782 5789
5463 5454 5451 5436 5428 5432 5432 5442 5455 5495 5488 5491 5501 5504 5507 5527 5525 5524 5526 5532 5551 5548 5543 5578 5577 5627 5673 5667 5685 5689 5694 5688 5673 5689 5705 5727 5703 5736 5765 5768 5768 5769 5780 5784 5776
5467 5467 5451 5439 5436 5434 5429 5448 5480 5479 5479 5480 5485 5492 5509 5528 5521 5531 5532 5527 5521 5517 5517 5574 5586 5636 5647 5668 5679 5685 5684 5730 5706 5731 5722 5745 5761 5762 5763 5764 5766 5772 5776 5773 5770
5470 5475 5464 5448 5442 5443 5440 5458 5468 5473 5471 5471 5471 5492 5499 5512 5493 5508 5525 5503 5506 5508 5493 5552 5564 5617 5646 5653 5668 5684 5717 5679 5700 5683 5701 5736 5742 5750 5754 5760 5769 5769 5774 5775 5766
5470 5481 5468 5454 5447 5452 5449 5466 5473 5473 5469 5468 5471 5475 5488 5499 5509 5512 5519 5500 5493 5505 5516 5536 5545 5597 5635 5644 5654 5677 5689 5694 5710 5718 5709 5710 5733 5774 5762 5765 5775 5780 5781 5775 5764
5484 5480 5473 5463 5453 5454 5463 5470 5468 5473 5478 5473 5472 5474 5479 5483 5490 5505 5503 5502 5492 5502 5513 5544 5538 5574 5624 5667 5670 5683 5691 5697 5697 5697 5722 5726 5734 5766 5764 5771 5784 5784 5783 5778 5765
5488 5487 5479 5467 5453 5455 5467 5469 5479 5478 5477 5475 5472 5476 5483 5480 5481 5493 5498 5495 5489 5484 5492 5518 5546 5571 5598 5625 5662 5673 5692 5707 5705 5724 5711 5717 5739 5767 5765 5770 5782 5782 5781 5769 5762
5484 5469 5475 5468 5454 5439 5453 5466 5473 5483 5478 5476 5477 5478 5476 5483 5496 5490 5505 5487 5483 5484 5484 5489 5530 5556 5581 5625 5662 5662 5689 5709 5702 5697 5717 5724 5731 5748 5757 5761 5767 5766 5765 5763 5762
5476 5473 5463 5454 5450 5444 5446 5457 5463 5467 5470 5472 5476 5475 5477 5480 5488 5491 5487 5492 5494 5485 5484 5485 5537 5568 5568 5579 5621 5676 5686 5699 5700 5706 5717 5731 5732 5750 5761 5760 5760 5759 5761 5759 5758
5469 5464 5460 5453 5453 5449 5454 5463 5460 5459 5452 5459 5463 5468 5471 5471 5476 5476 5486 5490 5493 5487 5484 5492 5539 5556 5564 5562 5597 5654 5684 5697 5704 5705 5729 5736 5726 5762 5758 5761 5757 5758 5758 5755 5756
5465 5450 5440 5451 5455 5437 5454 5455 5455 5451 5457 5461 5458 5460 5465 5465 5468 5473 5481 5491 5503 5504 5505 5509 5527 5559 5540 5562 5596 5631 5669 5692 5701 5710 5714 5704 5720 5743 5739 5744 5747 5756 5759 5758 5757